| time (UTC) | temp F | wind direction | speed knots | gust knots | rain 1hr in | rain 24hr in | rain mn in | humidity % | barometer mb |
| 20260506191013 | 91 | 328 | 1.7 | 7.8 | 0.00 | 0.00 | 0.00 | 7 | 1012.7 |
| 20260506190511 | 91 | 45 | 2.6 | 9.6 | 0.00 | 0.00 | 0.00 | 7 | 1012.7 |
| 20260506190012 | 91 | 59 | 4.3 | 9.6 | 0.00 | 0.00 | 0.00 | 7 | 1012.7 |
| 20260506185512 | 91 | 335 | 3.5 | 8.7 | 0.00 | 0.00 | 0.00 | 7 | 1012.9 |
| 20260506185010 | 91 | 320 | 1.7 | 5.2 | 0.00 | 0.00 | 0.00 | 7 | 1012.9 |
| 20260506184509 | 91 | 348 | 1.7 | 5.2 | 0.00 | 0.00 | 0.00 | 7 | 1012.9 |
| 20260506184008 | 91 | 311 | 1.7 | 7.8 | 0.00 | 0.00 | 0.00 | 7 | 1013.1 |
| 20260506183512 | 90 | 354 | 2.6 | 7.8 | 0.00 | 0.00 | 0.00 | 7 | 1013.1 |
| 20260506183008 | 90 | 55 | 1.7 | 8.7 | 0.00 | 0.00 | 0.00 | 7 | 1013.1 |
| 20260506182511 | 90 | 86 | 3.5 | 8.7 | 0.00 | 0.00 | 0.00 | 7 | 1013.2 |
| 20260506182006 | 90 | 359 | 2.6 | 7.8 | 0.00 | 0.00 | 0.00 | 7 | 1013.3 |
| 20260506181505 | 90 | 322 | 1.7 | 4.3 | 0.00 | 0.00 | 0.00 | 7 | 1013.4 |
| 20260506181006 | 89 | 149 | 0.9 | 4.3 | 0.00 | 0.00 | 0.00 | 7 | 1013.4 |
| 20260506180506 | 89 | 359 | 1.7 | 7.8 | 0.00 | 0.00 | 0.00 | 7 | 1013.4 |
| 20260506180008 | 89 | 359 | 3.5 | 7.8 | 0.00 | 0.00 | 0.00 | 7 | 1013.5 |
| 20260506175505 | 88 | 40 | 2.6 | 7.0 | 0.00 | 0.00 | 0.00 | 8 | 1013.5 |
| 20260506175005 | 88 | 77 | 2.6 | 7.8 | 0.00 | 0.00 | 0.00 | 7 | 1013.6 |
| 20260506174505 | 89 | 359 | 3.5 | 7.8 | 0.00 | 0.00 | 0.00 | 7 | 1013.7 |
| 20260506174005 | 88 | 4 | 2.6 | 7.8 | 0.00 | 0.00 | 0.00 | 7 | 1013.9 |
| 20260506173509 | 88 | 70 | 1.7 | 8.7 | 0.00 | 0.00 | 0.00 | 7 | 1014.1 |
| 20260506173005 | 88 | 70 | 3.5 | 10.4 | 0.00 | 0.00 | 0.00 | 7 | 1014.4 |
| 20260506172505 | 88 | 60 | 3.5 | 10.4 | 0.00 | 0.00 | 0.00 | 7 | 1014.3 |
| 20260506172003 | 88 | 73 | 1.7 | 8.7 | 0.00 | 0.00 | 0.00 | 7 | 1014.3 |
| 20260506171503 | 88 | 62 | 4.3 | 8.7 | 0.00 | 0.00 | 0.00 | 7 | 1014.4 |
| 20260506171006 | 88 | 22 | 0.9 | 7.0 | 0.00 | 0.00 | 0.00 | 7 | 1014.3 |
| 20260506170502 | 88 | 359 | 1.7 | 7.0 | 0.00 | 0.00 | 0.00 | 7 | 1014.4 |
| 20260506170002 | 88 | 176 | 2.6 | 7.0 | 0.00 | 0.00 | 0.00 | 7 | 1014.5 |
| 20260506165502 | 88 | 174 | 0.9 | 7.8 | 0.00 | 0.00 | 0.00 | 7 | 1014.4 |
| 20260506165002 | 88 | 354 | 3.5 | 7.8 | 0.00 | 0.00 | 0.00 | 7 | 1014.5 |
| 20260506164509 | 87 | 131 | 1.7 | 6.1 | 0.00 | 0.00 | 0.00 | 7 | 1014.4 |
| 20260506164003 | 87 | 121 | 0.9 | 8.7 | 0.00 | 0.00 | 0.00 | 7 | 1014.5 |
| 20260506163501 | 87 | 110 | 1.7 | 8.7 | 0.00 | 0.00 | 0.00 | 7 | 1014.5 |
| 20260506163004 | 86 | 62 | 2.6 | 7.8 | 0.00 | 0.00 | 0.00 | 7 | 1014.6 |
| 20260506162503 | 86 | 53 | 0.9 | 7.0 | 0.00 | 0.00 | 0.00 | 8 | 1014.6 |
| 20260506162001 | 86 | 75 | 2.6 | 7.0 | 0.00 | 0.00 | 0.00 | 8 | 1014.6 |
| 20260506161600 | 86 | 55 | 1.7 | 5.2 | 0.00 | 0.00 | 0.00 | 8 | 1014.6 |
| 20260506161102 | 86 | 68 | 1.7 | 7.8 | 0.00 | 0.00 | 0.00 | 8 | 1014.7 |
| 20260506160558 | 86 | 141 | 2.6 | 7.8 | 0.00 | 0.00 | 0.00 | 8 | 1014.6 |
| 20260506160124 | 85 | 147 | 0.0 | 7.0 | 0.00 | 0.00 | 0.00 | 8 | 1014.7 |
| 20260506155558 | 85 | 80 | 2.6 | 7.0 | 0.00 | 0.00 | 0.00 | 8 | 1014.8 |
| 20260506155102 | 85 | 63 | 1.7 | 6.1 | 0.00 | 0.00 | 0.00 | 8 | 1014.7 |
| 20260506154559 | 85 | 64 | 1.7 | 6.1 | 0.00 | 0.00 | 0.00 | 9 | 1014.8 |
| 20260506154058 | 84 | 121 | 1.7 | 6.1 | 0.00 | 0.00 | 0.00 | 9 | 1014.7 |
| 20260506153601 | 84 | 139 | 2.6 | 4.3 | 0.00 | 0.00 | 0.00 | 8 | 1014.7 |
| 20260506153058 | 84 | 88 | 0.9 | 4.3 | 0.00 | 0.00 | 0.00 | 9 | 1014.7 |
| 20260506152557 | 85 | 58 | 0.9 | 7.8 | 0.00 | 0.00 | 0.00 | 8 | 1014.8 |
| 20260506152101 | 85 | 41 | 4.3 | 7.8 | 0.00 | 0.00 | 0.00 | 9 | 1014.8 |
| 20260506151557 | 85 | 8 | 0.0 | 1.7 | 0.00 | 0.00 | 0.00 | 9 | 1014.8 |
| 20260506151055 | 84 | 8 | 0.0 | 2.6 | 0.00 | 0.00 | 0.00 | 9 | 1014.7 |
| 20260506150556 | 83 | 8 | 0.9 | 4.3 | 0.00 | 0.00 | 0.00 | 9 | 1014.9 |
| 20260506150103 | 83 | 8 | 0.9 | 5.2 | 0.00 | 0.00 | 0.00 | 9 | 1014.9 |
| 20260506145555 | 83 | 354 | 1.7 | 5.2 | 0.00 | 0.00 | 0.00 | 10 | 1015.0 |
| 20260506145054 | 82 | 14 | 0.9 | 5.2 | 0.00 | 0.00 | 0.00 | 10 | 1015.0 |
| 20260506144555 | 82 | 81 | 1.7 | 5.2 | 0.00 | 0.00 | 0.00 | 10 | 1015.1 |
| 20260506144054 | 82 | 49 | 0.9 | 5.2 | 0.00 | 0.00 | 0.00 | 10 | 1015.0 |
| 20260506143554 | 81 | 75 | 0.9 | 7.0 | 0.00 | 0.00 | 0.00 | 11 | 1015.1 |
| 20260506143054 | 81 | 118 | 1.7 | 7.0 | 0.00 | 0.00 | 0.00 | 11 | 1015.1 |
| 20260506142554 | 80 | 127 | 1.7 | 6.1 | 0.00 | 0.00 | 0.00 | 11 | 1015.1 |
| 20260506142053 | 80 | 124 | 2.6 | 7.0 | 0.00 | 0.00 | 0.00 | 11 | 1015.1 |
| 20260506141550 | 80 | 158 | 2.6 | 7.8 | 0.00 | 0.00 | 0.00 | 10 | 1015.1 |
| 20260506141050 | 80 | 149 | 2.6 | 7.0 | 0.00 | 0.00 | 0.00 | 11 | 1015.1 |
| 20260506140550 | 80 | 172 | 1.7 | 7.8 | 0.00 | 0.00 | 0.00 | 12 | 1015.1 |
| 20260506140050 | 79 | 132 | 0.9 | 7.8 | 0.00 | 0.00 | 0.00 | 12 | 1015.0 |
| 20260506135549 | 79 | 122 | 0.9 | 4.3 | 0.00 | 0.00 | 0.00 | 13 | 1015.1 |
| 20260506135049 | 79 | 75 | 0.0 | 7.0 | 0.00 | 0.00 | 0.00 | 13 | 1015.0 |
| 20260506134552 | 78 | 139 | 1.7 | 7.0 | 0.00 | 0.00 | 0.00 | 13 | 1015.1 |
| 20260506134050 | 78 | 143 | 0.9 | 2.6 | 0.00 | 0.00 | 0.00 | 14 | 1015.0 |
| 20260506133548 | 78 | 143 | 0.9 | 1.7 | 0.00 | 0.00 | 0.00 | 15 | 1015.0 |
| 20260506133104 | 78 | 143 | 0.0 | 1.7 | 0.00 | 0.00 | 0.00 | 15 | 1014.8 |
| 20260506132546 | 77 | 143 | 0.0 | 0.9 | 0.00 | 0.00 | 0.00 | 16 | 1014.8 |
| 20260506132047 | 77 | 143 | 0.0 | 1.7 | 0.00 | 0.00 | 0.00 | 17 | 1014.7 |
| 20260506131545 | 76 | 143 | 0.0 | 1.7 | 0.00 | 0.00 | 0.00 | 16 | 1014.7 |
| 20260506131044 | 76 | 143 | 0.0 | 0.9 | 0.00 | 0.00 | 0.00 | 16 | 1014.6 |
| 20260506130544 | 75 | 143 | 0.0 | 0.9 | 0.00 | 0.00 | 0.00 | 17 | 1014.7 |
| 20260506130043 | 75 | 143 | 0.0 | 0.9 | 0.00 | 0.00 | 0.00 | 17 | 1014.7 |
| 20260506125542 | 74 | 143 | 0.0 | 0.9 | 0.00 | 0.00 | 0.00 | 16 | 1014.5 |
| 20260506125042 | 74 | 143 | 0.0 | 1.7 | 0.00 | 0.00 | 0.00 | 16 | 1014.4 |
| 20260506124541 | 73 | 143 | 0.0 | 1.7 | 0.00 | 0.00 | 0.00 | 16 | 1014.4 |
| 20260506124042 | 74 | 143 | 0.0 | 1.7 | 0.00 | 0.00 | 0.00 | 15 | 1014.2 |
| 20260506123542 | 74 | 143 | 0.0 | 2.6 | 0.00 | 0.00 | 0.00 | 15 | 1014.3 |
| 20260506123039 | 74 | 143 | 0.0 | 2.6 | 0.00 | 0.00 | 0.00 | 14 | 1014.1 |
| 20260506122535 | 75 | 143 | 0.0 | 3.5 | 0.00 | 0.00 | 0.00 | 14 | 1014.2 |
| 20260506122038 | 75 | 143 | 0.0 | 4.3 | 0.00 | 0.00 | 0.00 | 14 | 1014.1 |
| 20260506121534 | 75 | 136 | 1.7 | 9.6 | 0.00 | 0.00 | 0.00 | 13 | 1014.1 |
| 20260506121032 | 75 | 143 | 1.7 | 4.3 | 0.00 | 0.00 | 0.00 | 13 | 1014.1 |
| 20260506120532 | 76 | 76 | 0.0 | 7.8 | 0.00 | 0.00 | 0.00 | 13 | 1014.0 |
| 20260506120050 | 76 | 118 | 3.5 | 7.8 | 0.00 | 0.00 | 0.00 | 13 | 1014.0 |
| 20260506115531 | 76 | 127 | 3.5 | 8.7 | 0.00 | 0.00 | 0.00 | 13 | 1013.9 |
| 20260506115030 | 76 | 141 | 4.3 | 8.7 | 0.00 | 0.00 | 0.00 | 13 | 1013.8 |
| 20260506114534 | 76 | 118 | 3.5 | 10.4 | 0.00 | 0.00 | 0.00 | 13 | 1013.8 |
| 20260506114029 | 76 | 119 | 4.3 | 10.4 | 0.00 | 0.00 | 0.00 | 13 | 1013.7 |
| 20260506113529 | 76 | 121 | 3.5 | 9.6 | 0.00 | 0.00 | 0.00 | 13 | 1013.6 |
| 20260506113029 | 76 | 122 | 4.3 | 8.7 | 0.00 | 0.00 | 0.00 | 13 | 1013.7 |
| 20260506112529 | 76 | 120 | 3.5 | 9.6 | 0.00 | 0.00 | 0.00 | 13 | 1013.7 |
| 20260506112027 | 76 | 132 | 4.3 | 9.6 | 0.00 | 0.00 | 0.00 | 13 | 1013.7 |
| 20260506111528 | 76 | 104 | 4.3 | 9.6 | 0.00 | 0.00 | 0.00 | 13 | 1013.6 |
| 20260506111028 | 77 | 56 | 3.5 | 13.0 | 0.00 | 0.00 | 0.00 | 13 | 1013.6 |
| 20260506110524 | 77 | 141 | 4.3 | 13.0 | 0.00 | 0.00 | 0.00 | 12 | 1013.5 |
| 20260506110026 | 77 | 147 | 6.1 | 11.3 | 0.00 | 0.00 | 0.00 | 12 | 1013.5 |
| 20260506105529 | 77 | 132 | 5.2 | 11.3 | 0.00 | 0.00 | 0.00 | 13 | 1013.4 |
| 20260506105023 | 77 | 100 | 1.7 | 9.6 | 0.00 | 0.00 | 0.00 | 12 | 1013.3 |
| 20260506104535 | 78 | 164 | 4.3 | 13.0 | 0.00 | 0.00 | 0.00 | 12 | 1013.2 |
| 20260506104024 | 78 | 154 | 6.1 | 13.0 | 0.00 | 0.00 | 0.00 | 12 | 1013.1 |
| 20260506103522 | 78 | 124 | 4.3 | 15.6 | 0.00 | 0.00 | 0.00 | 12 | 1013.1 |
| 20260506103036 | 78 | 137 | 8.7 | 15.6 | 0.00 | 0.00 | 0.00 | 12 | 1013.1 |
| 20260506102524 | 78 | 155 | 5.2 | 14.8 | 0.00 | 0.00 | 0.00 | 12 | 1012.8 |
| 20260506102021 | 78 | 151 | 5.2 | 13.0 | 0.00 | 0.00 | 0.00 | 13 | 1012.8 |
| 20260506101521 | 78 | 45 | 7.0 | 13.0 | 0.00 | 0.00 | 0.00 | 13 | 1012.7 |
| 20260506101018 | 78 | 116 | 6.1 | 14.8 | 0.00 | 0.00 | 0.00 | 13 | 1012.5 |
| 20260506100520 | 78 | 136 | 7.0 | 13.0 | 0.00 | 0.00 | 0.00 | 13 | 1012.5 |
| 20260506100019 | 78 | 117 | 5.2 | 13.0 | 0.00 | 0.00 | 0.00 | 13 | 1012.4 |
| 20260506095519 | 78 | 141 | 6.1 | 13.9 | 0.00 | 0.00 | 0.00 | 12 | 1012.3 |
| 20260506095020 | 79 | 135 | 6.1 | 14.8 | 0.00 | 0.00 | 0.00 | 12 | 1012.4 |
| 20260506094518 | 78 | 125 | 6.1 | 13.0 | 0.00 | 0.00 | 0.00 | 12 | 1012.3 |
| 20260506094017 | 79 | 139 | 5.2 | 12.2 | 0.00 | 0.00 | 0.00 | 12 | 1012.2 |
| 20260506093517 | 78 | 137 | 3.5 | 10.4 | 0.00 | 0.00 | 0.00 | 12 | 1012.2 |
| 20260506093021 | 78 | 128 | 4.3 | 11.3 | 0.00 | 0.00 | 0.00 | 12 | 1012.1 |
| 20260506092518 | 78 | 125 | 3.5 | 11.3 | 0.00 | 0.00 | 0.00 | 12 | 1012.0 |
| 20260506092016 | 77 | 130 | 1.7 | 7.8 | 0.00 | 0.00 | 0.00 | 13 | 1011.9 |
| 20260506091518 | 77 | 129 | 3.5 | 7.8 | 0.00 | 0.00 | 0.00 | 13 | 1011.9 |
| 20260506091014 | 77 | 116 | 2.6 | 7.0 | 0.00 | 0.00 | 0.00 | 13 | 1011.7 |
| 20260506090514 | 77 | 119 | 1.7 | 7.0 | 0.00 | 0.00 | 0.00 | 13 | 1011.7 |
| 20260506090014 | 77 | 127 | 1.7 | 8.7 | 0.00 | 0.00 | 0.00 | 13 | 1011.7 |
| 20260506085513 | 77 | 95 | 3.5 | 8.7 | 0.00 | 0.00 | 0.00 | 13 | 1011.7 |
| 20260506085015 | 77 | 128 | 1.7 | 7.8 | 0.00 | 0.00 | 0.00 | 14 | 1011.6 |
| 20260506084525 | 76 | 122 | 1.7 | 7.8 | 0.00 | 0.00 | 0.00 | 14 | 1011.5 |
| 20260506084017 | 76 | 97 | 1.7 | 6.1 | 0.00 | 0.00 | 0.00 | 14 | 1011.6 |
| 20260506083513 | 76 | 125 | 0.9 | 6.1 | 0.00 | 0.00 | 0.00 | 15 | 1011.4 |
| 20260506083013 | 76 | 76 | 0.0 | 5.2 | 0.00 | 0.00 | 0.00 | 15 | 1011.3 |
| 20260506082512 | 76 | 98 | 0.9 | 5.2 | 0.00 | 0.00 | 0.00 | 15 | 1011.2 |
| 20260506082012 | 76 | 122 | 0.9 | 3.5 | 0.00 | 0.00 | 0.00 | 16 | 1011.1 |
| 20260506081515 | 76 | 122 | 1.7 | 6.1 | 0.00 | 0.00 | 0.00 | 16 | 1011.1 |
| 20260506081114 | 76 | 122 | 0.9 | 6.1 | 0.00 | 0.00 | 0.00 | 17 | 1011.1 |
| 20260506080542 | 75 | 139 | 2.6 | 4.3 | 0.00 | 0.00 | 0.00 | 17 | 1011.2 |
| 20260506073039 | 76 | 216 | 0.0 | 3.5 | 0.00 | 0.00 | 0.00 | 21 | 1011.3 |
| 20260506072539 | 76 | 218 | 0.9 | 3.5 | 0.00 | 0.00 | 0.00 | 20 | 1011.4 |
| 20260506072039 | 76 | 181 | 0.9 | 2.6 | 0.00 | 0.00 | 0.00 | 21 | 1011.4 |
| 20260506071539 | 76 | 216 | 0.0 | 5.2 | 0.00 | 0.00 | 0.00 | 22 | 1011.6 |
| 20260506071038 | 76 | 218 | 0.9 | 6.1 | 0.00 | 0.00 | 0.00 | 20 | 1011.5 |
| 20260506070538 | 76 | 156 | 3.5 | 6.1 | 0.00 | 0.00 | 0.00 | 20 | 1011.6 |
| 20260506062509 | 75 | 144 | 1.7 | 6.1 | 0.00 | 0.00 | 0.00 | 23 | 1011.9 |
| 20260506062008 | 75 | 161 | 2.6 | 4.3 | 0.00 | 0.00 | 0.00 | 25 | 1012.0 |
| 20260506061507 | 75 | 156 | 0.9 | 4.3 | 0.00 | 0.00 | 0.00 | 27 | 1011.9 |
| 20260506061006 | 75 | 156 | 0.9 | 1.7 | 0.00 | 0.00 | 0.00 | 27 | 1011.7 |
| 20260506060504 | 75 | 198 | 0.0 | 1.7 | 0.00 | 0.00 | 0.00 | 28 | 1011.8 |
| 20260506051058 | 77 | 198 | 0.0 | 0.0 | 0.00 | 0.00 | 0.00 | 29 | 1011.9 |
| 20260506050554 | 77 | 199 | 0.0 | 1.7 | 0.00 | 0.00 | 0.00 | 29 | 1011.8 |
| 20260506045052 | 78 | 199 | 1.7 | 3.5 | 0.00 | 0.00 | 0.00 | 28 | 1011.8 |
| 20260506044552 | 78 | 145 | 0.9 | 3.5 | 0.00 | 0.00 | 0.00 | 28 | 1011.8 |
| 20260506044051 | 78 | 145 | 1.7 | 3.5 | 0.00 | 0.00 | 0.00 | 29 | 1011.7 |
| 20260506043551 | 78 | 48 | 0.0 | 0.0 | 0.00 | 0.00 | 0.00 | 32 | 1011.7 |
| 20260506043051 | 78 | 48 | 0.0 | 1.7 | 0.00 | 0.00 | 0.00 | 31 | 1011.9 |
| 20260506042551 | 78 | 48 | 0.0 | 1.7 | 0.00 | 0.00 | 0.00 | 31 | 1011.8 |
| 20260506042053 | 78 | 48 | 0.0 | 0.9 | 0.00 | 0.00 | 0.00 | 32 | 1011.7 |
| 20260506041603 | 78 | 48 | 0.0 | 0.0 | 0.00 | 0.00 | 0.00 | 36 | 1011.7 |
| 20260506041050 | 78 | 48 | 0.0 | 0.0 | 0.00 | 0.00 | 0.00 | 40 | 1011.6 |
| 20260506040547 | 78 | 48 | 0.0 | 0.0 | 0.00 | 0.00 | 0.00 | 44 | 1011.6 |
| 20260506040047 | 78 | 48 | 0.0 | 0.0 | 0.00 | 0.00 | 0.00 | 45 | 1011.5 |
| 20260506035547 | 78 | 48 | 0.0 | 0.0 | 0.00 | 0.00 | 0.00 | 45 | 1011.4 |
| 20260506035046 | 78 | 48 | 0.0 | 0.9 | 0.00 | 0.00 | 0.00 | 45 | 1011.4 |
| 20260506034548 | 78 | 48 | 0.0 | 0.9 | 0.00 | 0.00 | 0.00 | 45 | 1011.5 |
| 20260506034046 | 79 | 48 | 0.0 | 1.7 | 0.00 | 0.00 | 0.00 | 44 | 1011.4 |
| 20260506033545 | 79 | 48 | 0.0 | 2.6 | 0.00 | 0.00 | 0.00 | 44 | 1011.4 |
| 20260506033044 | 79 | 48 | 0.0 | 2.6 | 0.00 | 0.00 | 0.00 | 45 | 1011.4 |
| 20260506032543 | 79 | 48 | 0.0 | 2.6 | 0.00 | 0.00 | 0.00 | 45 | 1011.4 |
| 20260506032042 | 79 | 348 | 0.0 | 1.7 | 0.00 | 0.00 | 0.00 | 45 | 1011.5 |
| 20260506031543 | 80 | 348 | 0.0 | 1.7 | 0.00 | 0.00 | 0.00 | 45 | 1011.4 |
| 20260506031041 | 80 | 348 | 0.0 | 2.6 | 0.00 | 0.00 | 0.00 | 44 | 1011.6 |
| 20260506030542 | 80 | 359 | 0.0 | 2.6 | 0.00 | 0.00 | 0.00 | 44 | 1011.5 |
| 20260506030035 | 81 | 348 | 0.0 | 2.6 | 0.00 | 0.00 | 0.00 | 43 | 1011.4 |
| 20260506025535 | 81 | 348 | 0.0 | 3.5 | 0.00 | 0.00 | 0.00 | 42 | 1011.4 |
| 20260506025032 | 82 | 354 | 1.7 | 2.6 | 0.00 | 0.00 | 0.00 | 41 | 1011.5 |
| 20260506024536 | 82 | 330 | 0.9 | 2.6 | 0.00 | 0.00 | 0.00 | 38 | 1011.4 |
| 20260506024030 | 83 | 359 | 0.0 | 2.6 | 0.00 | 0.00 | 0.00 | 35 | 1011.4 |
| 20260506023529 | 83 | 332 | 0.0 | 2.6 | 0.00 | 0.00 | 0.00 | 32 | 1011.6 |
| 20260506023047 | 84 | 333 | 0.0 | 3.5 | 0.00 | 0.00 | 0.00 | 29 | 1011.6 |
| 20260506022525 | 84 | 333 | 0.9 | 3.5 | 0.00 | 0.00 | 0.00 | 29 | 1011.5 |
| 20260506022027 | 85 | 349 | 0.0 | 1.7 | 0.00 | 0.00 | 0.00 | 21 | 1011.5 |
| 20260506021533 | 85 | 348 | 0.0 | 1.7 | 0.00 | 0.00 | 0.00 | 19 | 1011.4 |
| 20260506021026 | 85 | 348 | 0.0 | 0.0 | 0.00 | 0.00 | 0.00 | 19 | 1011.2 |
| 20260506020521 | 86 | 349 | 0.0 | 0.9 | 0.00 | 0.00 | 0.00 | 18 | 1011.3 |
| 20260506020022 | 86 | 348 | 0.0 | 0.9 | 0.00 | 0.00 | 0.00 | 18 | 1011.2 |
| 20260506015517 | 86 | 348 | 0.0 | 2.6 | 0.00 | 0.00 | 0.00 | 18 | 1011.4 |
| 20260506015016 | 87 | 348 | 0.9 | 2.6 | 0.00 | 0.00 | 0.00 | 17 | 1011.3 |
| 20260506014518 | 87 | 305 | 0.0 | 2.6 | 0.00 | 0.00 | 0.00 | 17 | 1011.3 |
| 20260506014014 | 87 | 305 | 0.0 | 2.6 | 0.00 | 0.00 | 0.00 | 16 | 1011.2 |
| 20260506013513 | 88 | 305 | 0.0 | 3.5 | 0.00 | 0.00 | 0.00 | 12 | 1011.1 |
| 20260506013015 | 88 | 305 | 0.9 | 4.3 | 0.00 | 0.00 | 0.00 | 11 | 1011.1 |
| 20260506012512 | 88 | 19 | 0.9 | 4.3 | 0.00 | 0.00 | 0.00 | 10 | 1011.0 |
| 20260506012010 | 88 | 41 | 1.7 | 7.0 | 0.00 | 0.00 | 0.00 | 10 | 1010.8 |
| 20260506011511 | 89 | 41 | 0.0 | 7.0 | 0.00 | 0.00 | 0.00 | 10 | 1010.7 |
| 20260506011009 | 89 | 56 | 2.6 | 6.1 | 0.00 | 0.00 | 0.00 | 10 | 1010.6 |
| 20260506010508 | 89 | 320 | 2.6 | 6.1 | 0.00 | 0.00 | 0.00 | 10 | 1010.5 |
| 20260506010004 | 90 | 56 | 2.6 | 10.4 | 0.00 | 0.00 | 0.00 | 10 | 1010.5 |
| 20260506005503 | 90 | 64 | 4.3 | 10.4 | 0.00 | 0.00 | 0.00 | 10 | 1010.5 |
| 20260506005002 | 91 | 76 | 1.7 | 7.8 | 0.00 | 0.00 | 0.00 | 10 | 1010.3 |
| 20260506004503 | 91 | 63 | 3.5 | 13.0 | 0.00 | 0.00 | 0.00 | 10 | 1010.2 |
| 20260506004001 | 91 | 66 | 4.3 | 13.0 | 0.00 | 0.00 | 0.00 | 11 | 1010.3 |
| 20260506003600 | 91 | 89 | 4.3 | 8.7 | 0.00 | 0.00 | 0.00 | 11 | 1010.2 |
| 20260506003059 | 92 | 83 | 4.3 | 8.7 | 0.00 | 0.00 | 0.00 | 10 | 1010.2 |
| 20260506002559 | 92 | 66 | 4.3 | 8.7 | 0.00 | 0.00 | 0.00 | 11 | 1010.2 |
| 20260506002502 | 92 | 87 | 2.6 | 8.7 | 0.00 | 0.00 | 0.00 | 11 | 1010.2 |
| 20260506002059 | 92 | 72 | 2.6 | 8.7 | 0.00 | 0.00 | 0.00 | 11 | 1010.1 |
| 20260506001559 | 92 | 316 | 2.6 | 13.9 | 0.00 | 0.00 | 0.00 | 11 | 1010.1 |
| 20260506001058 | 92 | 44 | 5.2 | 13.9 | 0.00 | 0.00 | 0.00 | 11 | 1010.1 |
| 20260506000556 | 93 | 80 | 5.2 | 10.4 | 0.00 | 0.00 | 0.00 | 11 | 1010.0 |
| 20260506000054 | 93 | 359 | 3.5 | 7.8 | 0.00 | 0.00 | 0.00 | 11 | 1009.9 |
| 20260505235553 | 93 | 60 | 4.3 | 9.6 | 0.00 | 0.00 | 0.00 | 10 | 1009.9 |
| 20260505235053 | 94 | 79 | 3.5 | 9.6 | 0.00 | 0.00 | 0.00 | 10 | 1009.9 |
| 20260505234553 | 94 | 70 | 3.5 | 7.8 | 0.00 | 0.00 | 0.00 | 10 | 1009.9 |
| 20260505234052 | 94 | 75 | 3.5 | 7.8 | 0.00 | 0.00 | 0.00 | 10 | 1009.9 |
| 20260505233554 | 94 | 81 | 2.6 | 9.6 | 0.00 | 0.00 | 0.00 | 11 | 1010.0 |
| 20260505233052 | 94 | 72 | 4.3 | 11.3 | 0.00 | 0.00 | 0.00 | 11 | 1010.0 |
| 20260505232551 | 94 | 58 | 5.2 | 9.6 | 0.00 | 0.00 | 0.00 | 11 | 1010.0 |
| 20260505232053 | 94 | 58 | 2.6 | 10.4 | 0.00 | 0.00 | 0.00 | 11 | 1010.0 |
| 20260505231605 | 94 | 51 | 1.7 | 11.3 | 0.00 | 0.00 | 0.00 | 11 | 1009.9 |
| 20260505231050 | 94 | 354 | 3.5 | 11.3 | 0.00 | 0.00 | 0.00 | 11 | 1010.0 |
| 20260505230550 | 94 | 48 | 5.2 | 11.3 | 0.00 | 0.00 | 0.00 | 11 | 1009.9 |
| 20260505230051 | 94 | 88 | 6.1 | 13.0 | 0.00 | 0.00 | 0.00 | 12 | 1009.9 |
| 20260505230049 | 94 | 56 | 6.1 | 13.0 | 0.00 | 0.00 | 0.00 | 12 | 1009.9 |
| 20260505225546 | 94 | 354 | 6.1 | 13.0 | 0.00 | 0.00 | 0.00 | 11 | 1010.0 |
| 20260505225046 | 95 | 73 | 3.5 | 10.4 | 0.00 | 0.00 | 0.00 | 12 | 1010.0 |
| 20260505224545 | 95 | 71 | 4.3 | 12.2 | 0.00 | 0.00 | 0.00 | 11 | 1010.0 |
| 20260505224044 | 95 | 50 | 4.3 | 8.7 | 0.00 | 0.00 | 0.00 | 11 | 1010.0 |
| 20260505223543 | 95 | 67 | 5.2 | 10.4 | 0.00 | 0.00 | 0.00 | 11 | 1010.1 |
| 20260505223045 | 95 | 66 | 2.6 | 8.7 | 0.00 | 0.00 | 0.00 | 12 | 1010.1 |
| 20260505223043 | 95 | 58 | 2.6 | 8.7 | 0.00 | 0.00 | 0.00 | 12 | 1010.1 |
| 20260505222545 | 95 | 25 | 1.7 | 10.4 | 0.00 | 0.00 | 0.00 | 12 | 1010.1 |
| 20260505222042 | 95 | 75 | 4.3 | 10.4 | 0.00 | 0.00 | 0.00 | 12 | 1010.3 |
| 20260505221542 | 94 | 54 | 2.6 | 11.3 | 0.00 | 0.00 | 0.00 | 12 | 1010.2 |
| 20260505221042 | 95 | 60 | 6.1 | 13.0 | 0.00 | 0.00 | 0.00 | 12 | 1010.4 |
| 20260505220540 | 95 | 68 | 3.5 | 13.0 | 0.00 | 0.00 | 0.00 | 11 | 1010.5 |
| 20260505220044 | 95 | 133 | 2.6 | 13.9 | 0.00 | 0.00 | 0.00 | 12 | 1010.5 |
| 20260505215537 | 96 | 81 | 4.3 | 11.3 | 0.00 | 0.00 | 0.00 | 11 | 1010.5 |
| 20260505215037 | 96 | 58 | 2.6 | 9.6 | 0.00 | 0.00 | 0.00 | 11 | 1010.6 |
| 20260505214550 | 96 | 68 | 1.7 | 9.6 | 0.00 | 0.00 | 0.00 | 10 | 1010.7 |
| 20260505214035 | 96 | 105 | 2.6 | 8.7 | 0.00 | 0.00 | 0.00 | 11 | 1010.5 |
| 20260505213533 | 95 | 65 | 2.6 | 9.6 | 0.00 | 0.00 | 0.00 | 11 | 1010.8 |
| 20260505213038 | 95 | 66 | 4.3 | 12.2 | 0.00 | 0.00 | 0.00 | 12 | 1010.9 |
| 20260505212531 | 94 | 4 | 3.5 | 12.2 | 0.00 | 0.00 | 0.00 | 12 | 1010.9 |
| 20260505212033 | 94 | 73 | 3.5 | 11.3 | 0.00 | 0.00 | 0.00 | 12 | 1010.9 |
| 20260505211530 | 94 | 325 | 5.2 | 11.3 | 0.00 | 0.00 | 0.00 | 12 | 1011.1 |
| 20260505211029 | 94 | 54 | 3.5 | 13.9 | 0.00 | 0.00 | 0.00 | 12 | 1011.0 |
| 20260505210530 | 94 | 68 | 6.1 | 13.9 | 0.00 | 0.00 | 0.00 | 12 | 1011.1 |
| 20260505210028 | 95 | 10 | 5.2 | 12.2 | 0.00 | 0.00 | 0.00 | 12 | 1011.2 |
| 20260505205527 | 95 | 70 | 2.6 | 11.3 | 0.00 | 0.00 | 0.00 | 12 | 1011.3 |
| 20260505205023 | 94 | 33 | 2.6 | 13.0 | 0.00 | 0.00 | 0.00 | 12 | 1011.5 |
| 20260505204522 | 94 | 68 | 5.2 | 13.0 | 0.00 | 0.00 | 0.00 | 12 | 1011.6 |
| 20260505204022 | 94 | 39 | 1.7 | 8.7 | 0.00 | 0.00 | 0.00 | 12 | 1011.5 |
| 20260505203521 | 94 | 67 | 2.6 | 11.3 | 0.00 | 0.00 | 0.00 | 13 | 1011.7 |
| 20260505203029 | 94 | 64 | 5.2 | 12.2 | 0.00 | 0.00 | 0.00 | 13 | 1011.9 |
| 20260505202521 | 94 | 51 | 4.3 | 12.2 | 0.00 | 0.00 | 0.00 | 13 | 1011.8 |
| 20260505202021 | 94 | 359 | 2.6 | 12.2 | 0.00 | 0.00 | 0.00 | 13 | 1011.9 |
| 20260505201529 | 94 | 54 | 6.1 | 12.2 | 0.00 | 0.00 | 0.00 | 13 | 1011.9 |
| 20260505201021 | 94 | 318 | 2.6 | 7.0 | 0.00 | 0.00 | 0.00 | 13 | 1012.0 |
| 20260505200519 | 94 | 54 | 1.7 | 8.7 | 0.00 | 0.00 | 0.00 | 13 | 1012.0 |
| 20260505200020 | 94 | 315 | 2.6 | 12.2 | 0.00 | 0.00 | 0.00 | 13 | 1012.1 |
| 20260505195520 | 94 | 131 | 4.3 | 13.9 | 0.00 | 0.00 | 0.00 | 13 | 1012.1 |
| 20260505195014 | 94 | 55 | 6.1 | 13.9 | 0.00 | 0.00 | 0.00 | 14 | 1012.1 |
| 20260505194514 | 93 | 30 | 4.3 | 9.6 | 0.00 | 0.00 | 0.00 | 14 | 1012.3 |
| 20260505194015 | 93 | 359 | 4.3 | 9.6 | 0.00 | 0.00 | 0.00 | 14 | 1012.5 |
| 20260505193511 | 94 | 37 | 3.5 | 11.3 | 0.00 | 0.00 | 0.00 | 13 | 1012.5 |
| 20260505193011 | 95 | 58 | 2.6 | 9.6 | 0.00 | 0.00 | 0.00 | 14 | 1012.5 |
| 20260505192512 | 95 | 43 | 3.5 | 10.4 | 0.00 | 0.00 | 0.00 | 14 | 1012.5 |
| 20260505192010 | 95 | 244 | 4.3 | 11.3 | 0.00 | 0.00 | 0.00 | 13 | 1012.4 |
| 20260505191512 | 95 | 120 | 3.5 | 11.3 | 0.00 | 0.00 | 0.00 | 12 | 1012.6 |